Location: Newark
(30.1000°N, 109.4667°E)
Time: 04:22:25
(UTC+00:00)

SR - Pass Details

Date: 22 February 2020
Orbit: 578 x 878 km, 66.7° (Epoch: 04 April)

Event Time Altitude Azimuth Distance (km) Brightness Sun altitude
Rises 16:32:24 0° 348° (NNW) 3,220 - -69.4°
Reaches altitude 10° 16:35:16 10° 1° (N) 2,235 - -69.6°
Maximum altitude 16:39:27 26° 57° (ENE) 1,365 - -69.8°
Drops below altitude 10° 16:43:21 10° 113° (ESE) 2,065 - -69.9°
Sets 16:45:52 0° 127° (SE) 2,924 - -70.0°
